Change the Weather History Date:

Friday, June 28, 2013

  Actual Average Record
Temperature  
Mean Temperature 71 °F -  
Max Temperature 80 °F 83 °F 101 °F (1944)
Min Temperature 62 °F 59 °F 47 °F (1950)
Cooling Degree Days 6    
Growing Degree Days 21 (Base 50)    
Moisture  
Dew Point 63 °F    
Average Humidity 78    
Maximum Humidity 94    
Minimum Humidity 50    
Precipitation  
Precipitation 0.09 in - - ()
Sea Level Pressure  
Sea Level Pressure 29.62 in    
Wind  
Wind Speed 4 mph (WNW)    
Max Wind Speed 21 mph    
Max Gust Speed 32 mph    
Visibility 10 miles    
Events Rain , Thunderstorm    
Averages and records for this station are not official NWS values.
T = Trace of Precipitation, MM = Missing Value Source: NWS Daily Summary

Daily Weather History Graph

Daily Weather History Graph

Search for Another Location

Airport or City:

Trip Planner

Search our weather history database for the weather conditions in past years. The results will help you decide how hot, cold, wet, or windy it might be!

Date:

Astronomy

Jun. 28, 2013 Rise Set
Actual Time 6:05 AM EDT 9:06 PM EDT
Civil Twilight 5:32 AM EDT 9:39 PM EDT
Nautical Twilight 4:50 AM EDT 10:21 PM EDT
Astronomical Twilight 4:01 AM EDT 11:10 PM EDT
Moon 12:02 AM EDT (6/28) 12:12 PM EDT (6/28)
Length of Visible Light 16h 07m
Length of Day
15h 01m
Waning Gibbous, 66% of the Moon is Illuminated
Jun 28
Waning Gibbous
Jun 30
Last Quarter
Jul 8
New
Jul 15
First Quarter
Jul 22
Full

Hourly Weather History & Observations

Time (EDT) Temp. Heat Index Dew Point Humidity Pressure Visibility Wind Dir Wind Speed Gust Speed Precip Events Conditions
12:16 AM 69.8 °F - 64.4 °F 83% 29.69 in 10.0 mi Calm Calm - N/A   Clear
12:35 AM 68.0 °F - 64.4 °F 88% 29.69 in 10.0 mi South 4.6 mph - N/A   Scattered Clouds
12:56 AM 68.0 °F - 64.4 °F 88% 29.68 in 10.0 mi Calm Calm - N/A   Scattered Clouds
1:16 AM 68.0 °F - 64.4 °F 88% 29.68 in 10.0 mi Calm Calm - N/A   Clear
1:36 AM 68.0 °F - 64.4 °F 88% 29.68 in 10.0 mi SSW 3.5 mph - N/A   Clear
1:56 AM 68.0 °F - 64.4 °F 88% 29.68 in 10.0 mi Calm Calm - N/A   Scattered Clouds
2:36 AM 68.0 °F - 64.4 °F 88% 29.66 in 10.0 mi SW 3.5 mph - N/A   Scattered Clouds
2:56 AM 69.8 °F - 64.4 °F 83% 29.65 in 10.0 mi SW 3.5 mph - N/A   Overcast
3:16 AM 69.8 °F - 64.4 °F 83% 29.65 in 10.0 mi Calm Calm - N/A   Overcast
3:36 AM 69.8 °F - 66.2 °F 88% 29.65 in 10.0 mi Calm Calm - N/A   Overcast
3:56 AM 69.8 °F - 66.2 °F 88% 29.65 in 10.0 mi Calm Calm - N/A   Overcast
4:16 AM 68.0 °F - 64.4 °F 88% 29.64 in 10.0 mi Calm Calm - N/A   Overcast
4:36 AM 68.0 °F - 64.4 °F 88% 29.64 in 10.0 mi Calm Calm - N/A   Mostly Cloudy
4:56 AM 68.0 °F - 64.4 °F 88% 29.63 in 10.0 mi Calm Calm - N/A   Overcast
5:16 AM 68.0 °F - 64.4 °F 88% 29.64 in 10.0 mi West 3.5 mph - N/A   Overcast
5:36 AM 68.0 °F - 64.4 °F 88% 29.64 in 10.0 mi Calm Calm - N/A   Scattered Clouds
5:56 AM 66.2 °F - 64.4 °F 94% 29.64 in 10.0 mi SW 3.5 mph - N/A   Scattered Clouds
6:16 AM 66.2 °F - 64.4 °F 94% 29.64 in 10.0 mi SW 3.5 mph - N/A   Scattered Clouds
6:36 AM 66.2 °F - 64.4 °F 94% 29.64 in 10.0 mi Calm Calm - N/A   Scattered Clouds
6:56 AM 66.2 °F - 64.4 °F 94% 29.64 in 10.0 mi Calm Calm - N/A   Clear
7:16 AM 68.0 °F - 64.4 °F 88% 29.64 in 10.0 mi Calm Calm - N/A   Scattered Clouds
7:36 AM 68.0 °F - 64.4 °F 88% 29.63 in 10.0 mi West 3.5 mph - N/A   Mostly Cloudy
7:56 AM 69.8 °F - 64.4 °F 83% 29.63 in 10.0 mi West 3.5 mph - N/A   Scattered Clouds
8:16 AM 69.8 °F - 64.4 °F 83% 29.63 in 10.0 mi WNW 5.8 mph - N/A   Clear
8:36 AM 71.6 °F - 66.2 °F 83% 29.63 in 10.0 mi WNW 9.2 mph - N/A   Clear
8:56 AM 71.6 °F - 66.2 °F 83% 29.63 in 10.0 mi West 8.1 mph - N/A   Mostly Cloudy
9:16 AM 71.6 °F - 66.2 °F 83% 29.63 in 10.0 mi WNW 8.1 mph - N/A   Mostly Cloudy
9:36 AM 73.4 °F - 68.0 °F 83% 29.63 in 10.0 mi West 6.9 mph - N/A   Mostly Cloudy
9:56 AM 71.6 °F - 66.2 °F 83% 29.63 in 10.0 mi WNW 9.2 mph - N/A   Overcast
10:16 AM 71.6 °F - 66.2 °F 83% 29.63 in 10.0 mi WNW 8.1 mph - N/A   Overcast
10:36 AM 73.4 °F - 68.0 °F 83% 29.63 in 10.0 mi NW 8.1 mph 16.1 mph N/A   Mostly Cloudy
10:56 AM 71.6 °F - 66.2 °F 83% 29.63 in 10.0 mi WNW 9.2 mph 17.3 mph N/A   Overcast
11:15 AM 75.2 °F - 68.0 °F 78% 29.63 in 10.0 mi WNW 9.2 mph - N/A   Scattered Clouds
11:36 AM 77.0 °F - 66.2 °F 69% 29.63 in 10.0 mi WNW 8.1 mph 16.1 mph N/A   Scattered Clouds
11:56 AM 77.0 °F - 68.0 °F 74% 29.62 in 10.0 mi WNW 9.2 mph - N/A   Scattered Clouds
12:15 PM 78.8 °F - 66.2 °F 65% 29.62 in 10.0 mi WNW 8.1 mph - N/A   Mostly Cloudy
12:36 PM 78.8 °F - 64.4 °F 61% 29.60 in 10.0 mi NW 11.5 mph - N/A   Scattered Clouds
12:56 PM 78.8 °F - 62.6 °F 57% 29.60 in 10.0 mi NW 9.2 mph 20.7 mph N/A   Scattered Clouds
1:16 PM 78.8 °F - 60.8 °F 54% 29.62 in 10.0 mi NW 20.7 mph 32.2 mph N/A   Scattered Clouds
1:36 PM 64.4 °F - 59.0 °F 83% 29.60 in 7.0 mi NW 9.2 mph - 0.08 in Rain Light Rain
1:56 PM 68.0 °F - 60.8 °F 78% 29.61 in 10.0 mi West 5.8 mph - 0.08 in Rain Light Rain
2:16 PM 69.8 °F - 62.6 °F 78% 29.61 in 10.0 mi South 6.9 mph - N/A   Scattered Clouds
2:36 PM 73.4 °F - 62.6 °F 69% 29.60 in 10.0 mi WSW 5.8 mph - N/A   Clear
2:56 PM 77.0 °F - 64.4 °F 65% 29.60 in 10.0 mi West 5.8 mph - N/A   Clear
3:16 PM 77.0 °F - 64.4 °F 65% 29.58 in 10.0 mi NW 5.8 mph - N/A   Scattered Clouds
3:36 PM 80.6 °F 81.8 °F 62.6 °F 54% 29.58 in 10.0 mi WNW 18.4 mph 25.3 mph N/A   Scattered Clouds
3:56 PM 80.6 °F 81.8 °F 62.6 °F 54% 29.58 in 10.0 mi WNW 20.7 mph 26.5 mph N/A   Clear
4:16 PM 78.8 °F - 62.6 °F 57% 29.57 in 10.0 mi West 13.8 mph 21.9 mph N/A   Clear
4:36 PM 78.8 °F - 60.8 °F 54% 29.57 in 10.0 mi WNW 16.1 mph 20.7 mph N/A Thunderstorm Clear
4:56 PM 77.0 °F - 60.8 °F 57% 29.58 in 10.0 mi West 11.5 mph 20.7 mph N/A   Clear
5:16 PM 78.8 °F - 59.0 °F 51% 29.59 in 10.0 mi West 13.8 mph 20.7 mph N/A   Clear
5:36 PM 71.6 °F - 55.4 °F 57% 29.60 in 10.0 mi NW 17.3 mph 28.8 mph N/A   Clear
5:56 PM 71.6 °F - 51.8 °F 50% 29.58 in 10.0 mi NW 10.4 mph - N/A   Clear
6:16 PM 71.6 °F - 55.4 °F 57% 29.58 in 10.0 mi West 8.1 mph - N/A   Clear
6:36 PM 73.4 °F - 59.0 °F 61% 29.59 in 10.0 mi West 8.1 mph - N/A   Clear
6:56 PM 71.6 °F - 59.0 °F 64% 29.60 in 10.0 mi WNW 10.4 mph - N/A   Clear
7:16 PM 71.6 °F - 59.0 °F 64% 29.62 in 10.0 mi North 13.8 mph 18.4 mph N/A   Mostly Cloudy
7:36 PM 69.8 °F - 59.0 °F 68% 29.61 in 10.0 mi North 9.2 mph - N/A   Scattered Clouds
7:56 PM 69.8 °F - 59.0 °F 68% 29.61 in 10.0 mi North 6.9 mph 16.1 mph N/A   Clear
8:16 PM 68.0 °F - 59.0 °F 73% 29.62 in 10.0 mi NW 3.5 mph - N/A   Clear
8:36 PM 68.0 °F - 60.8 °F 78% 29.62 in 10.0 mi Calm Calm - N/A   Mostly Cloudy
8:56 PM 68.0 °F - 60.8 °F 78% 29.62 in 10.0 mi NNW 3.5 mph - N/A   Overcast
9:16 PM 68.0 °F - 60.8 °F 78% 29.62 in 10.0 mi Calm Calm - N/A   Overcast
9:36 PM 66.2 °F - 62.6 °F 88% 29.62 in 10.0 mi Calm Calm - 0.01 in Rain Light Rain
9:56 PM 64.4 °F - 60.8 °F 88% 29.63 in 10.0 mi SW 4.6 mph - 0.01 in   Mostly Cloudy
10:16 PM 64.4 °F - 62.6 °F 94% 29.62 in 10.0 mi Calm Calm - N/A   Mostly Cloudy
10:36 PM 64.4 °F - 60.8 °F 88% 29.62 in 10.0 mi Calm Calm - N/A   Scattered Clouds
10:56 PM 62.6 °F - 60.8 °F 94% 29.62 in 10.0 mi Calm Calm - N/A   Clear
11:16 PM 62.6 °F - 60.8 °F 94% 29.62 in 10.0 mi Calm Calm - N/A   Clear
11:36 PM 62.6 °F - 60.8 °F 94% 29.62 in 10.0 mi Calm Calm - N/A   Clear
11:56 PM 62.6 °F - 60.8 °F 94% 29.61 in 10.0 mi Calm Calm - N/A   Clear